iso_date,epoch_date,Year,Hour,Min,DOY,POS_DOY,Lat,Lon,BP,Ts,Ta,has_bp,has_ts,has_ta,BuoyID,Buoy_Type,Buoy_Owner,Logistics,Hemisphere
2020-07-06T18:00:00Z,1594058400,2020,18,0,188.75,188.75,50.759,-49.073,-999.00,9.18,-999.0,no,yes,no,300234066515050,SVPGHI,AOML,UNKNOWN,North
2020-07-06T19:00:02Z,1594062003,2020,19,0,188.7917,188.7917,50.756,-49.072,-999.00,9.02,-999.0,no,yes,no,300234066515050,SVPGHI,AOML,UNKNOWN,North
2020-07-06T19:59:57Z,1594065597,2020,20,0,188.8333,188.8333,50.753,-49.073,-999.00,9.28,-999.0,no,yes,no,300234066515050,SVPGHI,AOML,UNKNOWN,North
2020-07-06T21:00:00Z,1594069200,2020,21,0,188.875,188.875,50.752,-49.072,-999.00,9.25,-999.0,no,yes,no,300234066515050,SVPGHI,AOML,UNKNOWN,North
2020-07-06T22:00:02Z,1594072803,2020,22,0,188.9167,188.9167,50.753,-49.07,-999.00,8.88,-999.0,no,yes,no,300234066515050,SVPGHI,AOML,UNKNOWN,North
2020-07-06T22:59:57Z,1594076397,2020,23,0,188.9583,188.9583,50.752,-49.065,-999.00,9.06,-999.0,no,yes,no,300234066515050,SVPGHI,AOML,UNKNOWN,North
2020-07-07T00:00:00Z,1594080000,2020,0,0,189.0,189.0,50.753,-49.057,-999.00,8.95,-999.0,no,yes,no,300234066515050,SVPGHI,AOML,UNKNOWN,North
2020-07-07T01:00:02Z,1594083603,2020,1,0,189.0417,189.0417,50.753,-49.049,-999.00,8.74,-999.0,no,yes,no,300234066515050,SVPGHI,AOML,UNKNOWN,North
2020-07-07T01:59:57Z,1594087197,2020,2,0,189.0833,189.0833,50.748,-49.036,-999.00,8.8,-999.0,no,yes,no,300234066515050,SVPGHI,AOML,UNKNOWN,North
2020-07-07T03:00:00Z,1594090800,2020,3,0,189.125,189.125,50.744,-49.025,-999.00,8.87,-999.0,no,yes,no,300234066515050,SVPGHI,AOML,UNKNOWN,North
2020-07-07T04:00:02Z,1594094403,2020,4,0,189.1667,189.1667,50.738,-49.017,-999.00,8.79,-999.0,no,yes,no,300234066515050,SVPGHI,AOML,UNKNOWN,North
2020-07-07T04:59:57Z,1594097997,2020,5,0,189.2083,189.2083,50.734,-49.01,-999.00,8.88,-999.0,no,yes,no,300234066515050,SVPGHI,AOML,UNKNOWN,North
2020-07-07T06:00:00Z,1594101600,2020,6,0,189.25,189.25,50.729,-49.004,-999.00,8.84,-999.0,no,yes,no,300234066515050,SVPGHI,AOML,UNKNOWN,North
2020-07-07T07:00:02Z,1594105203,2020,7,0,189.2917,189.2917,50.724,-48.998,-999.00,8.83,-999.0,no,yes,no,300234066515050,SVPGHI,AOML,UNKNOWN,North
2020-07-07T07:59:57Z,1594108797,2020,8,0,189.3333,189.3333,50.721,-48.994,-999.00,8.81,-999.0,no,yes,no,300234066515050,SVPGHI,AOML,UNKNOWN,North
2020-07-07T09:00:00Z,1594112400,2020,9,0,189.375,189.375,50.717,-48.996,-999.00,8.79,-999.0,no,yes,no,300234066515050,SVPGHI,AOML,UNKNOWN,North
2020-07-07T10:00:02Z,1594116003,2020,10,0,189.4167,189.4167,50.715,-48.993,-999.00,8.69,-999.0,no,yes,no,300234066515050,SVPGHI,AOML,UNKNOWN,North
2020-07-07T10:59:57Z,1594119597,2020,11,0,189.4583,189.4583,50.714,-48.991,-999.00,8.85,-999.0,no,yes,no,300234066515050,SVPGHI,AOML,UNKNOWN,North
2020-07-07T12:00:00Z,1594123200,2020,12,0,189.5,189.5,50.714,-48.986,-999.00,9.13,-999.0,no,yes,no,300234066515050,SVPGHI,AOML,UNKNOWN,North
2020-07-07T13:00:02Z,1594126803,2020,13,0,189.5417,189.5417,50.713,-48.98,-999.00,9.87,-999.0,no,yes,no,300234066515050,SVPGHI,AOML,UNKNOWN,North
2020-07-07T13:59:57Z,1594130397,2020,14,0,189.5833,189.5833,50.711,-48.971,-999.00,10.82,-999.0,no,yes,no,300234066515050,SVPGHI,AOML,UNKNOWN,North
2020-07-07T15:01:00Z,1594134060,2020,15,1,189.6257,189.6257,50.708,-48.961,-999.00,10.24,-999.0,no,yes,no,300234066515050,SVPGHI,AOML,UNKNOWN,North
2020-07-07T16:00:02Z,1594137603,2020,16,0,189.6667,189.6667,50.703,-48.952,-999.00,10.16,-999.0,no,yes,no,300234066515050,SVPGHI,AOML,UNKNOWN,North
2020-07-07T16:59:57Z,1594141197,2020,17,0,189.7083,189.7083,50.7,-48.946,-999.00,11.16,-999.0,no,yes,no,300234066515050,SVPGHI,AOML,UNKNOWN,North
2020-07-07T18:00:00Z,1594144800,2020,18,0,189.75,189.75,50.698,-48.939,-999.00,10.83,-999.0,no,yes,no,300234066515050,SVPGHI,AOML,UNKNOWN,North
2020-07-07T19:00:02Z,1594148403,2020,19,0,189.7917,189.7917,50.697,-48.933,-999.00,11.09,-999.0,no,yes,no,300234066515050,SVPGHI,AOML,UNKNOWN,North
2020-07-07T19:59:57Z,1594151997,2020,20,0,189.8333,189.8333,50.694,-48.928,-999.00,10.57,-999.0,no,yes,no,300234066515050,SVPGHI,AOML,UNKNOWN,North
2020-07-07T21:00:00Z,1594155600,2020,21,0,189.875,189.875,50.692,-48.923,-999.00,10.0,-999.0,no,yes,no,300234066515050,SVPGHI,AOML,UNKNOWN,North
2020-07-07T22:00:02Z,1594159203,2020,22,0,189.9167,189.9167,50.689,-48.917,-999.00,9.83,-999.0,no,yes,no,300234066515050,SVPGHI,AOML,UNKNOWN,North
2020-07-07T22:59:57Z,1594162797,2020,23,0,189.9583,189.9583,50.687,-48.908,-999.00,9.79,-999.0,no,yes,no,300234066515050,SVPGHI,AOML,UNKNOWN,North
2020-07-08T00:00:00Z,1594166400,2020,0,0,190.0,190.0,50.684,-48.897,-999.00,9.73,-999.0,no,yes,no,300234066515050,SVPGHI,AOML,UNKNOWN,North
2020-07-08T01:00:02Z,1594170003,2020,1,0,190.0417,190.0417,50.678,-48.888,-999.00,9.72,-999.0,no,yes,no,300234066515050,SVPGHI,AOML,UNKNOWN,North
2020-07-08T01:59:57Z,1594173597,2020,2,0,190.0833,190.0833,50.673,-48.88,-999.00,9.58,-999.0,no,yes,no,300234066515050,SVPGHI,AOML,UNKNOWN,North
2020-07-08T03:00:00Z,1594177200,2020,3,0,190.125,190.125,50.669,-48.875,-999.00,9.66,-999.0,no,yes,no,300234066515050,SVPGHI,AOML,UNKNOWN,North
2020-07-08T04:01:03Z,1594180863,2020,4,1,190.1674,190.1674,50.663,-48.872,-999.00,9.72,-999.0,no,yes,no,300234066515050,SVPGHI,AOML,UNKNOWN,North
2020-07-08T04:59:57Z,1594184397,2020,5,0,190.2083,190.2083,50.661,-48.868,-999.00,9.66,-999.0,no,yes,no,300234066515050,SVPGHI,AOML,UNKNOWN,North
2020-07-08T06:00:00Z,1594188000,2020,6,0,190.25,190.25,50.66,-48.863,-999.00,9.61,-999.0,no,yes,no,300234066515050,SVPGHI,AOML,UNKNOWN,North
2020-07-08T07:00:02Z,1594191603,2020,7,0,190.2917,190.2917,50.661,-48.858,-999.00,9.51,-999.0,no,yes,no,300234066515050,SVPGHI,AOML,UNKNOWN,North
2020-07-08T07:59:57Z,1594195197,2020,8,0,190.3333,190.3333,50.661,-48.851,-999.00,9.45,-999.0,no,yes,no,300234066515050,SVPGHI,AOML,UNKNOWN,North
2020-07-08T09:00:00Z,1594198800,2020,9,0,190.375,190.375,50.662,-48.843,-999.00,9.49,-999.0,no,yes,no,300234066515050,SVPGHI,AOML,UNKNOWN,North
2020-07-08T10:00:02Z,1594202403,2020,10,0,190.4167,190.4167,50.662,-48.83,-999.00,9.54,-999.0,no,yes,no,300234066515050,SVPGHI,AOML,UNKNOWN,North
2020-07-08T10:59:57Z,1594205997,2020,11,0,190.4583,190.4583,50.661,-48.816,-999.00,9.56,-999.0,no,yes,no,300234066515050,SVPGHI,AOML,UNKNOWN,North
2020-07-08T12:00:00Z,1594209600,2020,12,0,190.5,190.5,50.657,-48.804,-999.00,9.59,-999.0,no,yes,no,300234066515050,SVPGHI,AOML,UNKNOWN,North
2020-07-08T13:00:02Z,1594213203,2020,13,0,190.5417,190.5417,50.65,-48.795,-999.00,9.53,-999.0,no,yes,no,300234066515050,SVPGHI,AOML,UNKNOWN,North
2020-07-08T13:59:57Z,1594216797,2020,14,0,190.5833,190.5833,50.645,-48.787,-999.00,9.6,-999.0,no,yes,no,300234066515050,SVPGHI,AOML,UNKNOWN,North
2020-07-08T15:00:00Z,1594220400,2020,15,0,190.625,190.625,50.641,-48.778,-999.00,9.71,-999.0,no,yes,no,300234066515050,SVPGHI,AOML,UNKNOWN,North
2020-07-08T16:02:55Z,1594224176,2020,16,3,190.6687,190.6687,50.634,-48.777,-999.00,9.72,-999.0,no,yes,no,300234066515050,SVPGHI,AOML,UNKNOWN,North
2020-07-08T16:59:57Z,1594227597,2020,17,0,190.7083,190.7083,50.631,-48.772,-999.00,9.64,-999.0,no,yes,no,300234066515050,SVPGHI,AOML,UNKNOWN,North
2020-07-08T18:00:00Z,1594231200,2020,18,0,190.75,190.75,50.629,-48.767,-999.00,9.72,-999.0,no,yes,no,300234066515050,SVPGHI,AOML,UNKNOWN,North
2020-07-08T19:00:02Z,1594234803,2020,19,0,190.7917,190.7917,50.628,-48.761,-999.00,9.95,-999.0,no,yes,no,300234066515050,SVPGHI,AOML,UNKNOWN,North
2020-07-08T19:59:57Z,1594238397,2020,20,0,190.8333,190.8333,50.628,-48.754,-999.00,9.92,-999.0,no,yes,no,300234066515050,SVPGHI,AOML,UNKNOWN,North
2020-07-08T21:00:00Z,1594242000,2020,21,0,190.875,190.875,50.629,-48.748,-999.00,9.96,-999.0,no,yes,no,300234066515050,SVPGHI,AOML,UNKNOWN,North
2020-07-08T22:00:02Z,1594245603,2020,22,0,190.9167,190.9167,50.631,-48.742,-999.00,9.93,-999.0,no,yes,no,300234066515050,SVPGHI,AOML,UNKNOWN,North
2020-07-08T22:59:57Z,1594249197,2020,23,0,190.9583,190.9583,50.633,-48.734,-999.00,9.88,-999.0,no,yes,no,300234066515050,SVPGHI,AOML,UNKNOWN,North
2020-07-09T00:00:00Z,1594252800,2020,0,0,191.0,191.0,50.634,-48.723,-999.00,9.82,-999.0,no,yes,no,300234066515050,SVPGHI,AOML,UNKNOWN,North
2020-07-09T01:00:02Z,1594256403,2020,1,0,191.0417,191.0417,50.633,-48.714,-999.00,9.77,-999.0,no,yes,no,300234066515050,SVPGHI,AOML,UNKNOWN,North
2020-07-09T01:59:57Z,1594259997,2020,2,0,191.0833,191.0833,50.631,-48.702,-999.00,9.77,-999.0,no,yes,no,300234066515050,SVPGHI,AOML,UNKNOWN,North
2020-07-09T03:00:00Z,1594263600,2020,3,0,191.125,191.125,50.629,-48.692,-999.00,9.79,-999.0,no,yes,no,300234066515050,SVPGHI,AOML,UNKNOWN,North
2020-07-09T04:00:02Z,1594267203,2020,4,0,191.1667,191.1667,50.628,-48.684,-999.00,9.71,-999.0,no,yes,no,300234066515050,SVPGHI,AOML,UNKNOWN,North
2020-07-09T04:59:57Z,1594270797,2020,5,0,191.2083,191.2083,50.627,-48.673,-999.00,9.74,-999.0,no,yes,no,300234066515050,SVPGHI,AOML,UNKNOWN,North
2020-07-09T06:00:00Z,1594274400,2020,6,0,191.25,191.25,50.627,-48.66,-999.00,9.66,-999.0,no,yes,no,300234066515050,SVPGHI,AOML,UNKNOWN,North
2020-07-09T07:00:02Z,1594278003,2020,7,0,191.2917,191.2917,50.625,-48.65,-999.00,9.68,-999.0,no,yes,no,300234066515050,SVPGHI,AOML,UNKNOWN,North
2020-07-09T07:59:57Z,1594281597,2020,8,0,191.3333,191.3333,50.625,-48.643,-999.00,9.73,-999.0,no,yes,no,300234066515050,SVPGHI,AOML,UNKNOWN,North
2020-07-09T10:02:55Z,1594288976,2020,10,3,191.4187,191.4187,50.626,-48.631,-999.00,9.69,-999.0,no,yes,no,300234066515050,SVPGHI,AOML,UNKNOWN,North
2020-07-09T10:59:57Z,1594292397,2020,11,0,191.4583,191.4583,50.626,-48.624,-999.00,9.7,-999.0,no,yes,no,300234066515050,SVPGHI,AOML,UNKNOWN,North
2020-07-09T12:00:00Z,1594296000,2020,12,0,191.5,191.5,50.629,-48.619,-999.00,9.7,-999.0,no,yes,no,300234066515050,SVPGHI,AOML,UNKNOWN,North
2020-07-09T13:00:02Z,1594299603,2020,13,0,191.5417,191.5417,50.628,-48.612,-999.00,9.7,-999.0,no,yes,no,300234066515050,SVPGHI,AOML,UNKNOWN,North
2020-07-09T13:59:57Z,1594303197,2020,14,0,191.5833,191.5833,50.63,-48.603,-999.00,9.69,-999.0,no,yes,no,300234066515050,SVPGHI,AOML,UNKNOWN,North
2020-07-09T15:01:00Z,1594306860,2020,15,1,191.6257,191.6257,50.63,-48.586,-999.00,9.72,-999.0,no,yes,no,300234066515050,SVPGHI,AOML,UNKNOWN,North
2020-07-09T16:01:03Z,1594310463,2020,16,1,191.6674,191.6674,50.632,-48.591,-999.00,9.77,-999.0,no,yes,no,300234066515050,SVPGHI,AOML,UNKNOWN,North
2020-07-09T16:59:57Z,1594313997,2020,17,0,191.7083,191.7083,50.632,-48.577,-999.00,9.84,-999.0,no,yes,no,300234066515050,SVPGHI,AOML,UNKNOWN,North
2020-07-09T18:01:00Z,1594317660,2020,18,1,191.7507,191.7507,50.64,-48.566,-999.00,9.81,-999.0,no,yes,no,300234066515050,SVPGHI,AOML,UNKNOWN,North
2020-07-09T19:00:02Z,1594321203,2020,19,0,191.7917,191.7917,50.634,-48.555,-999.00,9.88,-999.0,no,yes,no,300234066515050,SVPGHI,AOML,UNKNOWN,North
2020-07-09T19:59:57Z,1594324797,2020,20,0,191.8333,191.8333,50.633,-48.544,-999.00,9.89,-999.0,no,yes,no,300234066515050,SVPGHI,AOML,UNKNOWN,North
2020-07-09T21:03:01Z,1594328581,2020,21,3,191.8771,191.8771,50.631,-48.534,-999.00,9.85,-999.0,no,yes,no,300234066515050,SVPGHI,AOML,UNKNOWN,North
2020-07-09T22:00:02Z,1594332003,2020,22,0,191.9167,191.9167,50.629,-48.527,-999.00,9.85,-999.0,no,yes,no,300234066515050,SVPGHI,AOML,UNKNOWN,North
2020-07-09T22:59:57Z,1594335597,2020,23,0,191.9583,191.9583,50.625,-48.523,-999.00,9.85,-999.0,no,yes,no,300234066515050,SVPGHI,AOML,UNKNOWN,North
2020-07-10T00:01:00Z,1594339260,2020,0,1,192.0007,192.0007,50.623,-48.52,-999.00,9.86,-999.0,no,yes,no,300234066515050,SVPGHI,AOML,UNKNOWN,North
2020-07-10T01:00:02Z,1594342803,2020,1,0,192.0417,192.0417,50.624,-48.518,-999.00,9.85,-999.0,no,yes,no,300234066515050,SVPGHI,AOML,UNKNOWN,North
2020-07-10T01:59:57Z,1594346397,2020,2,0,192.0833,192.0833,50.627,-48.515,-999.00,9.84,-999.0,no,yes,no,300234066515050,SVPGHI,AOML,UNKNOWN,North
2020-07-10T03:00:00Z,1594350000,2020,3,0,192.125,192.125,50.629,-48.51,-999.00,9.84,-999.0,no,yes,no,300234066515050,SVPGHI,AOML,UNKNOWN,North
2020-07-10T04:00:02Z,1594353603,2020,4,0,192.1667,192.1667,50.633,-48.503,-999.00,9.85,-999.0,no,yes,no,300234066515050,SVPGHI,AOML,UNKNOWN,North
2020-07-10T04:59:57Z,1594357197,2020,5,0,192.2083,192.2083,50.634,-48.494,-999.00,9.83,-999.0,no,yes,no,300234066515050,SVPGHI,AOML,UNKNOWN,North
2020-07-10T06:00:00Z,1594360800,2020,6,0,192.25,192.25,50.636,-48.481,-999.00,9.82,-999.0,no,yes,no,300234066515050,SVPGHI,AOML,UNKNOWN,North
2020-07-10T07:00:02Z,1594364403,2020,7,0,192.2917,192.2917,50.637,-48.471,-999.00,9.8,-999.0,no,yes,no,300234066515050,SVPGHI,AOML,UNKNOWN,North
2020-07-10T07:59:57Z,1594367997,2020,8,0,192.3333,192.3333,50.636,-48.462,-999.00,9.79,-999.0,no,yes,no,300234066515050,SVPGHI,AOML,UNKNOWN,North
2020-07-10T09:00:00Z,1594371600,2020,9,0,192.375,192.375,50.635,-48.451,-999.00,9.8,-999.0,no,yes,no,300234066515050,SVPGHI,AOML,UNKNOWN,North
2020-07-10T10:00:02Z,1594375203,2020,10,0,192.4167,192.4167,50.63,-48.444,-999.00,9.83,-999.0,no,yes,no,300234066515050,SVPGHI,AOML,UNKNOWN,North
2020-07-10T10:59:57Z,1594378797,2020,11,0,192.4583,192.4583,50.627,-48.44,-999.00,9.9,-999.0,no,yes,no,300234066515050,SVPGHI,AOML,UNKNOWN,North
2020-07-10T12:00:00Z,1594382400,2020,12,0,192.5,192.5,50.625,-48.437,-999.00,9.98,-999.0,no,yes,no,300234066515050,SVPGHI,AOML,UNKNOWN,North
2020-07-10T13:00:02Z,1594386003,2020,13,0,192.5417,192.5417,50.625,-48.437,-999.00,10.17,-999.0,no,yes,no,300234066515050,SVPGHI,AOML,UNKNOWN,North
2020-07-10T13:59:57Z,1594389597,2020,14,0,192.5833,192.5833,50.631,-48.438,-999.00,10.35,-999.0,no,yes,no,300234066515050,SVPGHI,AOML,UNKNOWN,North
2020-07-10T15:00:00Z,1594393200,2020,15,0,192.625,192.625,50.629,-48.431,-999.00,10.51,-999.0,no,yes,no,300234066515050,SVPGHI,AOML,UNKNOWN,North
2020-07-10T16:00:02Z,1594396803,2020,16,0,192.6667,192.6667,50.63,-48.425,-999.00,10.71,-999.0,no,yes,no,300234066515050,SVPGHI,AOML,UNKNOWN,North
2020-07-10T16:59:57Z,1594400397,2020,17,0,192.7083,192.7083,50.631,-48.42,-999.00,10.75,-999.0,no,yes,no,300234066515050,SVPGHI,AOML,UNKNOWN,North
2020-07-10T18:00:00Z,1594404000,2020,18,0,192.75,192.75,50.632,-48.411,-999.00,10.74,-999.0,no,yes,no,300234066515050,SVPGHI,AOML,UNKNOWN,North
2020-07-10T19:00:02Z,1594407603,2020,19,0,192.7917,192.7917,50.63,-48.404,-999.00,10.81,-999.0,no,yes,no,300234066515050,SVPGHI,AOML,UNKNOWN,North
2020-07-10T19:59:57Z,1594411197,2020,20,0,192.8333,192.8333,50.628,-48.397,-999.00,11.5,-999.0,no,yes,no,300234066515050,SVPGHI,AOML,UNKNOWN,North
2020-07-10T21:00:00Z,1594414800,2020,21,0,192.875,192.875,50.626,-48.391,-999.00,10.57,-999.0,no,yes,no,300234066515050,SVPGHI,AOML,UNKNOWN,North
2020-07-10T22:00:02Z,1594418403,2020,22,0,192.9167,192.9167,50.622,-48.387,-999.00,10.76,-999.0,no,yes,no,300234066515050,SVPGHI,AOML,UNKNOWN,North
2020-07-10T22:59:57Z,1594421997,2020,23,0,192.9583,192.9583,50.621,-48.385,-999.00,11.18,-999.0,no,yes,no,300234066515050,SVPGHI,AOML,UNKNOWN,North
2020-07-11T00:00:00Z,1594425600,2020,0,0,193.0,193.0,50.618,-48.385,-999.00,11.07,-999.0,no,yes,no,300234066515050,SVPGHI,AOML,UNKNOWN,North
2020-07-11T01:00:02Z,1594429203,2020,1,0,193.0417,193.0417,50.618,-48.386,-999.00,10.84,-999.0,no,yes,no,300234066515050,SVPGHI,AOML,UNKNOWN,North
2020-07-11T01:59:57Z,1594432797,2020,2,0,193.0833,193.0833,50.619,-48.384,-999.00,10.76,-999.0,no,yes,no,300234066515050,SVPGHI,AOML,UNKNOWN,North
2020-07-11T03:00:00Z,1594436400,2020,3,0,193.125,193.125,50.619,-48.379,-999.00,10.55,-999.0,no,yes,no,300234066515050,SVPGHI,AOML,UNKNOWN,North
2020-07-11T04:00:02Z,1594440003,2020,4,0,193.1667,193.1667,50.619,-48.373,-999.00,10.64,-999.0,no,yes,no,300234066515050,SVPGHI,AOML,UNKNOWN,North
2020-07-11T04:59:57Z,1594443597,2020,5,0,193.2083,193.2083,50.616,-48.365,-999.00,10.7,-999.0,no,yes,no,300234066515050,SVPGHI,AOML,UNKNOWN,North
2020-07-11T06:00:00Z,1594447200,2020,6,0,193.25,193.25,50.614,-48.357,-999.00,10.78,-999.0,no,yes,no,300234066515050,SVPGHI,AOML,UNKNOWN,North
2020-07-11T07:00:02Z,1594450803,2020,7,0,193.2917,193.2917,50.611,-48.353,-999.00,10.63,-999.0,no,yes,no,300234066515050,SVPGHI,AOML,UNKNOWN,North
2020-07-11T07:59:57Z,1594454397,2020,8,0,193.3333,193.3333,50.609,-48.351,-999.00,10.54,-999.0,no,yes,no,300234066515050,SVPGHI,AOML,UNKNOWN,North
2020-07-11T09:01:00Z,1594458060,2020,9,1,193.3757,193.3757,50.604,-48.348,-999.00,10.36,-999.0,no,yes,no,300234066515050,SVPGHI,AOML,UNKNOWN,North
2020-07-11T10:00:02Z,1594461603,2020,10,0,193.4167,193.4167,50.601,-48.345,-999.00,10.3,-999.0,no,yes,no,300234066515050,SVPGHI,AOML,UNKNOWN,North
2020-07-11T10:59:57Z,1594465197,2020,11,0,193.4583,193.4583,50.598,-48.344,-999.00,10.24,-999.0,no,yes,no,300234066515050,SVPGHI,AOML,UNKNOWN,North
2020-07-11T12:00:00Z,1594468800,2020,12,0,193.5,193.5,50.597,-48.342,-999.00,10.43,-999.0,no,yes,no,300234066515050,SVPGHI,AOML,UNKNOWN,North
2020-07-11T13:00:02Z,1594472403,2020,13,0,193.5417,193.5417,50.595,-48.342,-999.00,10.54,-999.0,no,yes,no,300234066515050,SVPGHI,AOML,UNKNOWN,North
2020-07-11T13:59:57Z,1594475997,2020,14,0,193.5833,193.5833,50.594,-48.346,-999.00,10.78,-999.0,no,yes,no,300234066515050,SVPGHI,AOML,UNKNOWN,North
2020-07-11T15:00:00Z,1594479600,2020,15,0,193.625,193.625,50.593,-48.342,-999.00,10.92,-999.0,no,yes,no,300234066515050,SVPGHI,AOML,UNKNOWN,North
2020-07-11T16:00:02Z,1594483203,2020,16,0,193.6667,193.6667,50.592,-48.337,-999.00,10.8,-999.0,no,yes,no,300234066515050,SVPGHI,AOML,UNKNOWN,North
2020-07-11T16:59:57Z,1594486797,2020,17,0,193.7083,193.7083,50.589,-48.33,-999.00,10.72,-999.0,no,yes,no,300234066515050,SVPGHI,AOML,UNKNOWN,North
2020-07-11T18:00:00Z,1594490400,2020,18,0,193.75,193.75,50.585,-48.326,-999.00,10.53,-999.0,no,yes,no,300234066515050,SVPGHI,AOML,UNKNOWN,North
2020-07-11T19:00:02Z,1594494003,2020,19,0,193.7917,193.7917,50.582,-48.321,-999.00,10.42,-999.0,no,yes,no,300234066515050,SVPGHI,AOML,UNKNOWN,North
2020-07-11T19:59:57Z,1594497597,2020,20,0,193.8333,193.8333,50.579,-48.318,-999.00,10.38,-999.0,no,yes,no,300234066515050,SVPGHI,AOML,UNKNOWN,North
2020-07-11T21:00:00Z,1594501200,2020,21,0,193.875,193.875,50.578,-48.314,-999.00,10.3,-999.0,no,yes,no,300234066515050,SVPGHI,AOML,UNKNOWN,North
2020-07-11T22:00:02Z,1594504803,2020,22,0,193.9167,193.9167,50.575,-48.309,-999.00,10.26,-999.0,no,yes,no,300234066515050,SVPGHI,AOML,UNKNOWN,North
2020-07-11T22:59:57Z,1594508397,2020,23,0,193.9583,193.9583,50.572,-48.303,-999.00,10.28,-999.0,no,yes,no,300234066515050,SVPGHI,AOML,UNKNOWN,North
2020-07-12T00:00:00Z,1594512000,2020,0,0,194.0,194.0,50.568,-48.3,-999.00,10.34,-999.0,no,yes,no,300234066515050,SVPGHI,AOML,UNKNOWN,North
2020-07-12T01:00:02Z,1594515603,2020,1,0,194.0417,194.0417,50.566,-48.301,-999.00,10.25,-999.0,no,yes,no,300234066515050,SVPGHI,AOML,UNKNOWN,North
2020-07-12T01:59:57Z,1594519197,2020,2,0,194.0833,194.0833,50.561,-48.299,-999.00,10.19,-999.0,no,yes,no,300234066515050,SVPGHI,AOML,UNKNOWN,North
2020-07-12T03:00:00Z,1594522800,2020,3,0,194.125,194.125,50.558,-48.297,-999.00,10.23,-999.0,no,yes,no,300234066515050,SVPGHI,AOML,UNKNOWN,North
2020-07-12T04:02:03Z,1594526524,2020,4,2,194.1681,194.1681,50.556,-48.295,-999.00,10.22,-999.0,no,yes,no,300234066515050,SVPGHI,AOML,UNKNOWN,North
2020-07-12T04:59:57Z,1594529997,2020,5,0,194.2083,194.2083,50.553,-48.289,-999.00,10.09,-999.0,no,yes,no,300234066515050,SVPGHI,AOML,UNKNOWN,North
2020-07-12T06:00:00Z,1594533600,2020,6,0,194.25,194.25,50.552,-48.282,-999.00,10.03,-999.0,no,yes,no,300234066515050,SVPGHI,AOML,UNKNOWN,North
2020-07-12T07:00:02Z,1594537203,2020,7,0,194.2917,194.2917,50.554,-48.28,-999.00,9.98,-999.0,no,yes,no,300234066515050,SVPGHI,AOML,UNKNOWN,North
2020-07-12T08:03:59Z,1594541039,2020,8,4,194.3361,194.3361,50.551,-48.272,-999.00,9.93,-999.0,no,yes,no,300234066515050,SVPGHI,AOML,UNKNOWN,North
2020-07-12T09:04:01Z,1594544642,2020,9,4,194.3778,194.3778,50.547,-48.265,-999.00,9.81,-999.0,no,yes,no,300234066515050,SVPGHI,AOML,UNKNOWN,North
2020-07-12T10:00:02Z,1594548003,2020,10,0,194.4167,194.4167,50.544,-48.261,-999.00,9.72,-999.0,no,yes,no,300234066515050,SVPGHI,AOML,UNKNOWN,North
2020-07-12T10:59:57Z,1594551597,2020,11,0,194.4583,194.4583,50.542,-48.255,-999.00,9.63,-999.0,no,yes,no,300234066515050,SVPGHI,AOML,UNKNOWN,North
2020-07-12T12:00:00Z,1594555200,2020,12,0,194.5,194.5,50.534,-48.246,-999.00,9.49,-999.0,no,yes,no,300234066515050,SVPGHI,AOML,UNKNOWN,North
2020-07-12T13:00:02Z,1594558803,2020,13,0,194.5417,194.5417,50.535,-48.244,-999.00,9.17,-999.0,no,yes,no,300234066515050,SVPGHI,AOML,UNKNOWN,North
2020-07-12T13:59:57Z,1594562397,2020,14,0,194.5833,194.5833,50.527,-48.239,-999.00,8.93,-999.0,no,yes,no,300234066515050,SVPGHI,AOML,UNKNOWN,North
2020-07-12T16:00:02Z,1594569603,2020,16,0,194.6667,194.6667,50.517,-48.228,-999.00,8.97,-999.0,no,yes,no,300234066515050,SVPGHI,AOML,UNKNOWN,North
2020-07-12T16:59:57Z,1594573197,2020,17,0,194.7083,194.7083,50.508,-48.223,-999.00,9.03,-999.0,no,yes,no,300234066515050,SVPGHI,AOML,UNKNOWN,North
2020-07-12T18:00:00Z,1594576800,2020,18,0,194.75,194.75,50.503,-48.221,-999.00,9.17,-999.0,no,yes,no,300234066515050,SVPGHI,AOML,UNKNOWN,North
2020-07-12T19:00:02Z,1594580403,2020,19,0,194.7917,194.7917,50.498,-48.22,-999.00,9.2,-999.0,no,yes,no,300234066515050,SVPGHI,AOML,UNKNOWN,North
2020-07-12T19:59:57Z,1594583997,2020,20,0,194.8333,194.8333,50.495,-48.22,-999.00,9.24,-999.0,no,yes,no,300234066515050,SVPGHI,AOML,UNKNOWN,North
2020-07-12T21:00:00Z,1594587600,2020,21,0,194.875,194.875,50.492,-48.22,-999.00,9.26,-999.0,no,yes,no,300234066515050,SVPGHI,AOML,UNKNOWN,North
2020-07-12T22:03:56Z,1594591436,2020,22,4,194.9194,194.9194,50.491,-48.219,-999.00,9.25,-999.0,no,yes,no,300234066515050,SVPGHI,AOML,UNKNOWN,North
2020-07-12T23:00:57Z,1594594858,2020,23,1,194.959,194.959,50.49,-48.213,-999.00,9.21,-999.0,no,yes,no,300234066515050,SVPGHI,AOML,UNKNOWN,North
2020-07-13T00:00:00Z,1594598400,2020,0,0,195.0,195.0,50.49,-48.209,-999.00,9.16,-999.0,no,yes,no,300234066515050,SVPGHI,AOML,UNKNOWN,North
2020-07-13T01:02:03Z,1594602124,2020,1,2,195.0431,195.0431,50.489,-48.204,-999.00,9.06,-999.0,no,yes,no,300234066515050,SVPGHI,AOML,UNKNOWN,North
2020-07-13T01:59:57Z,1594605597,2020,2,0,195.0833,195.0833,50.487,-48.195,-999.00,8.98,-999.0,no,yes,no,300234066515050,SVPGHI,AOML,UNKNOWN,North
2020-07-13T03:00:00Z,1594609200,2020,3,0,195.125,195.125,50.484,-48.184,-999.00,8.87,-999.0,no,yes,no,300234066515050,SVPGHI,AOML,UNKNOWN,North
2020-07-13T04:00:02Z,1594612803,2020,4,0,195.1667,195.1667,50.479,-48.17,-999.00,8.83,-999.0,no,yes,no,300234066515050,SVPGHI,AOML,UNKNOWN,North
2020-07-13T04:59:57Z,1594616397,2020,5,0,195.2083,195.2083,50.47,-48.153,-999.00,8.73,-999.0,no,yes,no,300234066515050,SVPGHI,AOML,UNKNOWN,North
2020-07-13T06:00:00Z,1594620000,2020,6,0,195.25,195.25,50.462,-48.136,-999.00,8.7,-999.0,no,yes,no,300234066515050,SVPGHI,AOML,UNKNOWN,North
2020-07-13T07:00:02Z,1594623603,2020,7,0,195.2917,195.2917,50.457,-48.129,-999.00,8.69,-999.0,no,yes,no,300234066515050,SVPGHI,AOML,UNKNOWN,North
2020-07-13T07:59:57Z,1594627197,2020,8,0,195.3333,195.3333,50.448,-48.12,-999.00,8.69,-999.0,no,yes,no,300234066515050,SVPGHI,AOML,UNKNOWN,North
2020-07-13T09:00:00Z,1594630800,2020,9,0,195.375,195.375,50.438,-48.112,-999.00,8.7,-999.0,no,yes,no,300234066515050,SVPGHI,AOML,UNKNOWN,North
2020-07-13T10:00:02Z,1594634403,2020,10,0,195.4167,195.4167,50.433,-48.107,-999.00,8.68,-999.0,no,yes,no,300234066515050,SVPGHI,AOML,UNKNOWN,North
2020-07-13T10:59:57Z,1594637997,2020,11,0,195.4583,195.4583,50.426,-48.104,-999.00,8.67,-999.0,no,yes,no,300234066515050,SVPGHI,AOML,UNKNOWN,North
2020-07-13T12:02:00Z,1594641721,2020,12,2,195.5014,195.5014,50.423,-48.104,-999.00,8.66,-999.0,no,yes,no,300234066515050,SVPGHI,AOML,UNKNOWN,North
2020-07-13T13:00:02Z,1594645203,2020,13,0,195.5417,195.5417,50.422,-48.102,-999.00,8.67,-999.0,no,yes,no,300234066515050,SVPGHI,AOML,UNKNOWN,North
2020-07-13T13:59:57Z,1594648797,2020,14,0,195.5833,195.5833,50.421,-48.097,-999.00,8.66,-999.0,no,yes,no,300234066515050,SVPGHI,AOML,UNKNOWN,North